Location: *
(57.6680°S, 48.3040°W)
Time: 05:43:36
(UTC+00:00)

Daily predictions for brighter satellites

Satellite Brightness Start Highest point End
(mag) Time Altitude Azimuth Time Altitude Azimuth Time Altitude Azimuth
USA 215 3.6 00:26:02 59° W 00:26:02 59° W 00:31:23 10° WSW
COSMOS 2455 3.7 00:20:59 10° WNW 00:25:56 48° WSW 00:25:56 48° WSW
CZ-2C R/B 4.0 00:30:50 36° SSW 00:30:50 36° SSW 00:34:05 10° SSW
NOSS 3-2 (C) 4.1 00:21:27 10° WSW 00:28:06 56° S 00:28:06 56° S
ATLAS 3B R/B 3.1 00:28:08 10° WSW 00:34:34 63° SSW 00:34:34 63° SSW
NOSS 3-2 (A) 4.3 00:38:17 10° WSW 00:44:00 52° SSW 00:44:00 52° SSW
CENTAUR R/B 3.5 00:50:59 10° WSW 00:56:08 43° SW 00:56:08 43° SW
Cosmos 2082 Rocket 4.1 01:09:28 10° SW 01:11:54 26° SSW 01:11:54 26° SSW
Cosmos 2227 Rocket 4.3 01:19:18 10° WSW 01:23:23 22° SSW 01:23:23 22° SSW
Cosmos 2297 Rocket 4.3 01:21:56 10° WSW 01:25:51 22° SSW 01:25:51 22° SSW
Cosmos 1943 Rocket 4.3 04:52:32 22° SE 04:52:32 22° SE 04:54:31 10° SE
SL-16 R/B 4.2 05:04:30 10° SE 05:09:31 26° E 05:09:31 26° E
Cosmos 2369 Rocket 3.9 05:27:14 29° SSE 05:27:14 29° SSE 05:29:55 10° SE
Cosmos 2263 Rocket 4.0 05:31:04 25° S 05:31:36 25° SSE 05:36:14 10° ESE
ATLAS 5 CENTAUR R/B 3.5 05:52:45 39° E 05:52:45 39° E 05:57:05 10° ESE
Cosmos 2278 Rocket 4.1 05:52:04 23° S 05:52:04 23° S 05:56:19 10° SE
ATLAS 2AS CENTAUR R/B 3.1 06:04:01 47° SSE 06:04:01 47° SSE 06:09:10 10° ESE
SeaSat 1 3.7 06:08:04 10° SE 06:11:09 38° SE 06:11:09 38° SE
IDEFIX/ARIANE 42P 3.3 06:22:41 52° ESE 06:22:53 52° ESE 06:28:05 10° S
USA 229 DEB 3.8 06:30:10 62° NNE 06:30:10 62° NNE 06:35:47 10° NE
USA 229 3.8 06:30:13 63° NNE 06:30:13 63° NNE 06:35:53 10° NE
NOSS 3-1 (C) 3.5 06:30:34 81° ESE 06:30:34 81° ESE 06:36:30 10° ENE
NOSS 3-1 (A) 3.7 06:31:23 68° SSW 06:32:01 73° SSE 06:38:11 10° ENE
Cosmos 1943 Rocket 3.2 06:34:03 38° S 06:34:03 38° S 06:38:24 10° SSE
Cosmos 968 Rocket 4.2 06:36:52 49° SSE 06:36:52 49° SSE 06:40:44 10° SSE
NOSS 3-4 (A) 4.0 06:34:55 62° SW 06:35:42 66° SSW 06:43:02 10° ESE
NOSS 3-4 (C) 4.0 06:35:01 62° SW 06:35:48 66° SSW 06:43:08 10° ESE
Cosmos 1656 Rocket 4.3 06:39:38 48° S 06:39:38 48° S 06:43:51 10° SE
S3M 4.0 06:44:44 10° SSW 06:50:33 70° SW 06:50:33 70° SW
SL-16 R/B 2.4 06:47:42 10° SSE 06:54:03 87° WSW 06:54:36 76° NNW
BREEZE-M DEB (TANK) 4.5 06:51:22 43° WNW 06:55:49 67° NNW 07:00:56 10° ENE
Cosmos 2026 Rocket 3.8 06:56:24 75° WSW 06:56:24 75° WSW 07:02:28 10° S
NOAA 6 4.1 06:53:18 10° NNE 06:58:34 78° ESE 07:03:52 10° SSW
Okean-O 3.1 06:58:09 10° NE 07:02:35 59° ESE 07:07:04 10° S
Cosmos 2315 Rocket 4.2 06:59:51 10° S 07:06:22 72° ESE 07:12:47 10° NNE
Cosmos 2369 Rocket 3.4 07:09:02 28° SSW 07:09:13 29° SSW 07:14:06 10° SE
Cosmos 1980 Rocket 4.2 07:05:36 10° NNE 07:10:11 25° ENE 07:14:48 10° SE
Lacrosse 5 3.3 07:10:43 27° NNE 07:11:46 30° NE 07:16:13 10° E
Cosmos 1697 Rocket 3.9 07:08:12 18° NNE 07:11:49 38° ENE 07:17:02 10° SE
Cosmos 1844 Rocket 4.4 07:08:34 14° SSW 07:12:22 28° SSE 07:17:12 10° E
SL-14 R/B 4.4 07:08:47 10° S 07:12:44 44° ESE 07:16:40 10° NE
Cosmos 2263 Rocket 2.7 07:12:48 20° SSW 07:16:42 56° SE 07:22:14 10° ENE
Cosmos 1900 4.3 07:22:21 69° N 07:22:52 77° NE 07:28:01 10° SE
CZ-2C R/B 2.2 07:20:32 10° NNE 07:25:18 87° WNW 07:30:18 10° SSW
RESURS DK-1 4.2 07:32:11 21° SSW 07:32:11 21° SSW 07:35:01 10° SSE
Cosmos 2266 Rocket 4.1 07:25:32 11° N 07:31:48 81° E 07:38:22 10° SSE
SMAP 4.4 07:28:30 10° NE 07:32:55 41° ESE 07:37:23 10° S
MOZ.5/SAFIR/RUBIN 5/SL-8 4.1 07:28:42 10° S 07:32:40 49° SW 07:32:40 49° SW
Cosmos 1656 3.9 07:31:01 35° NNW 07:33:21 68° ENE 07:38:50 10° SE
Cosmos 1076 Rocket 4.4 07:31:20 10° S 07:35:36 51° ESE 07:39:49 10° NNE
ATLAS 5 CENTAUR R/B 2.3 07:34:18 51° WNW 07:36:00 77° SSW 07:41:52 10° ESE
Cosmos 2278 Rocket 4.0 07:33:54 13° SSW 07:37:49 25° SSE 07:42:28 10° ESE
Cosmos 1655 Rocket 4.0 07:36:11 44° NW 07:38:03 61° WSW 07:44:25 10° S
Cosmos 1470 3.8 07:37:59 10° NNE 07:41:42 46° E 07:45:32 10° SSE
Cosmos 1726 Rocket 4.0 07:42:27 47° SW 07:42:27 47° SW 07:46:13 10° S
Ariane Rocket 4.4 07:36:58 10° NE 07:41:47 40° ESE 07:46:37 10° S
Meteor 1-21 Rocket 4.1 07:37:29 10° SSW 07:43:13 75° W 07:48:48 10° N
Meteor 1-22 Rocket 4.0 07:42:06 46° NW 07:43:39 70° WSW 07:49:03 10° SSE
USA 234 4.2 07:39:54 10° ESE 07:46:07 41° NE 07:51:03 16° NNW
Cosmos 2227 4.2 07:43:16 28° SW 07:46:19 65° WNW 07:52:00 10° NNE
Radarsat Rocket 4.5 07:41:38 10° N 07:49:31 60° WNW 07:56:33 10° SSW
SeaSat 1 3.3 07:45:52 10° SSE 07:50:20 34° SW 07:50:55 32° SW
SL-08 R/B 4.5 07:48:34 10° S 07:51:46 27° SW 07:51:46 27° SW
ATLAS 2AS CENTAUR R/B 2.9 07:51:28 26° SW 07:54:50 56° SSE 08:01:05 10° E
Cosmos 1461 2.9 07:55:01 56° SW 07:55:09 56° SSW 07:59:02 10° SE
MSX 3.8 07:50:01 10° N 07:55:42 57° WNW 08:01:28 10° SSW
Cosmos 2285 Rocket 4.0 07:49:37 10° SSW 07:56:07 90° NW 08:02:35 10° NNE
Cosmos 1328 4.3 07:53:13 10° S 07:57:16 63° ESE 08:01:15 10° NNE
Cosmos 1626 2.6 07:55:39 10° S 07:59:29 62° ESE 08:03:14 10° NNE
Cosmos 1812 Rocket 3.8 07:55:06 10° N 07:59:30 69° E 08:03:56 10° SSE
Cosmos 2369 3.7 07:57:25 29° NW 08:00:32 86° SW 08:06:24 10° SE
IDEFIX/ARIANE 42P 3.2 08:03:32 35° WSW 08:03:32 35° WSW 08:07:40 10° SSW
ALOS 3.8 07:58:49 10° NE 08:03:13 38° ESE 08:07:37 10° S
Cosmos 2228 3.4 08:03:33 43° WSW 08:03:33 43° WSW 08:07:40 10° S
MERIDIAN 1 4.0 08:03:34 38° WNW 08:05:05 83° SW 08:12:02 10° SE
Cosmos 2058 Rocket 3.4 08:05:23 43° W 08:05:51 45° WSW 08:10:18 10° S
CZ-4 R/B 2.5 08:03:35 10° NE 08:07:25 45° ESE 08:11:15 10° S
Feng Yun 1-1 Rocket 4.5 08:02:26 10° NNW 08:07:37 41° W 08:12:48 10° SSW
Cosmos 1777 Rocket 4.4 08:07:14 37° W 08:08:38 45° SW 08:13:44 10° SSE
CSL-04 Rocket 3.9 08:03:42 10° NNE 08:09:06 72° ESE 08:14:30 10° SSW
Cosmos 1805 3.8 08:14:29 39° WSW 08:14:29 39° WSW 08:18:10 10° S
Lacrosse 4 Rocket 2.4 08:13:37 10° NNW 08:17:50 47° ENE 08:21:59 10° SE
Cosmos 1943 Rocket 3.8 08:15:35 17° SW 08:18:09 23° SSW 08:22:42 10° SE
USA 229 DEB 4.5 08:17:42 27° W 08:19:03 29° WNW 08:24:45 10° N
USA 229 4.5 08:17:44 27° W 08:19:09 29° WNW 08:24:53 10° N
NOSS 3-1 (C) 4.0 08:18:01 26° WSW 08:20:45 38° WNW 08:26:09 10° N
SJ 16-02 3.8 08:17:22 10° NNE 08:21:03 25° E 08:24:46 10° SE
Cosmos 1953 2.2 08:18:01 17° NNW 08:21:07 67° WSW 08:25:12 10° S
NOSS 3-1 (A) 3.7 08:18:52 23° WSW 08:22:43 47° NW 08:28:21 10° NNE
NOSS 3-4 (A) 4.3 08:22:21 20° WSW 08:27:42 57° S 08:34:43 10° E
NOSS 3-4 (C) 4.3 08:22:27 20° WSW 08:27:48 57° S 08:34:48 10° E
SJ-7 4.4 08:27:06 10° N 08:31:21 63° WNW 08:35:35 10° SSW
Cosmos 1766 Rocket 3.6 08:28:42 10° SSW 08:33:19 89° WSW 08:37:53 10° N
SL-16 R/B 3.5 08:31:51 10° S 08:37:02 28° SW 08:39:41 21° W
METEOR-M 4.2 08:31:59 10° NNE 08:37:24 89° E 08:42:54 10° SSW
Cosmos 2292 Rocket 4.3 08:33:50 10° N 08:38:12 69° E 08:44:08 10° SSE
Cosmos 1703 3.3 08:34:42 10° SSW 08:38:43 86° ESE 08:42:42 10° NNE
Okean-O 3.6 08:35:38 10° NNW 08:39:25 26° W 08:43:13 10° SW
Cosmos 2058 3.4 08:35:55 10° S 08:40:07 64° ESE 08:44:16 10° NNE
Cosmos 1484 Rocket 3.2 08:41:36 10° NNW 08:45:20 40° W 08:49:10 10° SSW
USA 161 1.4 08:43:43 10° SSE 08:46:11 71° ENE 08:48:52 10° N
Genesis I 3.6 08:43:45 18° SW 08:46:29 58° SSE 08:50:14 10° ENE
Cosmos 1733 3.8 08:44:06 18° NW 08:46:35 37° WSW 08:50:18 10° S
FENGYUN 3A 3.9 08:41:29 10° NNE 08:46:57 77° ESE 08:52:29 10° SSW
Cosmos 1500 Rocket 4.5 08:42:50 10° S 08:47:10 51° ESE 08:51:28 10° NNE
AQUARIUS 4.2 08:43:18 10° N 08:47:49 60° WNW 08:52:23 10° SSW
Cosmos 1758 4.1 08:45:58 19° WNW 08:48:19 33° WSW 08:52:09 10° S
SL-14 R/B 4.2 08:45:16 10° SSW 08:48:46 28° W 08:52:15 10° NNW
Cosmos 1048 Rocket 4.0 08:45:17 10° SSW 08:50:37 63° WNW 08:55:49 10° NNE
Cosmos 2278 4.0 08:47:55 15° WNW 08:52:34 53° SW 08:58:16 10° SE
ATLAS 5 CENTAUR R/B 4.4 08:42:43 10° SW 08:53:15 26° W 08:57:32 10° NNW
Cosmos 1980 Rocket 2.2 08:47:50 10° NW 08:53:36 87° SW 08:59:25 10° SE
Lacrosse 5 2.2 08:49:56 15° WNW 08:54:12 67° NNE 08:59:21 10° E
Cosmos 2369 Rocket 3.9 08:50:49 10° SW 08:55:05 21° S 08:59:22 10° SE
Cosmos 1269 Rocket 4.0 08:49:47 10° SSW 08:55:09 73° WNW 09:00:28 10° NNE
Cosmos 1697 Rocket 2.8 08:49:59 10° NW 08:55:37 62° SW 09:01:18 10° SE
Okean 3 Rocket 4.0 08:52:00 10° SSW 08:56:12 39° W 09:00:23 10° NNW
Resurs 01 Rocket 4.3 08:53:26 10° E 08:56:17 17° SE 08:59:08 10° S
Intercosmos 25 Rocket 4.4 08:51:00 10° SSW 08:56:37 37° W 09:00:22 10° NNW
Cosmos 1844 Rocket 3.0 08:51:35 10° SW 08:57:15 69° SE 09:02:52 10° NE
YAOGAN 1 2.6 08:52:55 10° NNE 08:57:20 89° WNW 09:01:48 10° SSW
Cosmos 158 Rocket 4.4 08:53:09 10° SW 08:57:41 36° WNW 09:02:12 10° N
Cosmos-2242 3.4 08:53:51 10° N 08:58:11 69° E 09:02:35 10° SSE
COSMO-SKYMED 1 4.4 08:54:22 10° SSE 08:58:31 36° E 09:02:36 10° NNE
GP-B 3.1 08:54:13 10° N 08:58:44 81° W 09:03:19 10° S
Cosmos 2263 Rocket 2.6 08:55:17 10° SW 09:00:34 42° WNW 09:05:49 10° N
SL-24 DEB 4.3 08:57:52 10° S 09:02:29 54° WSW 09:07:02 10° NNW
CZ-2C R/B 3.7 09:01:08 10° NW 09:04:22 18° W 09:07:40 10° SW
MOS 1-B Rocket 4.3 08:58:38 10° N 09:05:46 64° WNW 09:11:59 10° SSW
SL-16 R/B 3.0 09:02:35 10° NNW 09:08:08 55° ENE 09:13:45 10° SE
Meteor 1-28 Rocket 3.1 09:04:33 10° S 09:08:23 69° WSW 09:12:08 10° NNW
Cosmos 1844 4.1 09:02:49 10° SW 09:08:37 68° SE 09:14:17 10° NE
SMAP 3.5 09:05:52 10° NNW 09:10:19 40° W 09:14:49 10° SSW
Cosmos 1076 Rocket 4.4 09:09:14 10° SSW 09:12:53 26° W 09:16:29 10° NW
Cosmos 1656 4.2 09:12:29 11° WNW 09:17:23 39° SW 09:22:34 10° SSE
Cosmos 1470 3.8 09:14:38 10° WNW 09:18:01 26° WSW 09:21:24 10° S
H-2A R/B 3.2 09:15:09 10° NNE 09:19:04 68° ESE 09:22:58 10° S
Ariane Rocket 3.3 09:15:43 10° N 09:20:42 48° W 09:25:46 10° SSW
ATLAS 5 CENTAUR R/B 2.8 09:15:51 13° W 09:21:23 50° S 09:26:48 10° ESE
MOS 1 4.4 09:15:55 10° NNE 09:21:39 87° WNW 09:27:29 10° SSW
Cosmos 2322 Rocket 2.7 09:17:13 10° NNW 09:22:48 65° ENE 09:28:28 10° SE
Cosmos 2278 Rocket 3.1 09:17:38 10° SW 09:23:15 50° SE 09:28:47 10° ENE
Cosmos 2151 3.0 09:19:11 10° SSW 09:23:30 64° W 09:27:42 10° N
Cosmos 1898 Rocket 3.9 09:19:42 10° WNW 09:24:54 47° SW 09:30:10 10° SSE
Meteor 1-16 Rocket 4.1 09:21:24 10° NNW 09:26:43 61° WSW 09:32:10 10° SSE
SeaSat 1 4.2 09:23:25 10° SSE 09:26:49 19° SSW 09:30:12 10° SW
Cosmos 967 Rocket 4.5 09:21:55 10° NW 09:28:12 79° SW 09:34:32 10° SE
USA 234 3.5 09:23:07 10° ESE 09:29:46 74° NNE 09:36:24 10° WNW
Meteor 2-13 Rocket 4.5 09:24:38 10° NNW 09:30:46 85° W 09:36:58 10° SSE
Cosmos 1745 Rocket 4.1 09:24:24 10° NNW 09:30:47 65° WSW 09:37:15 10° S
FengYun 1-2 T 4.5 09:25:24 10° NNE 09:30:58 77° ESE 09:36:34 10° SSW
Nadezhda 1 Rocket 4.4 09:25:13 10° SSW 09:31:08 41° W 09:36:55 10° NNW
SPOT 3 Rocket 3.7 09:26:06 10° NNE 09:31:23 88° ESE 09:36:45 10° SSW
Aureole 2 Rocket 3.2 09:29:07 10° N 09:31:51 45° ENE 09:34:33 10° SE
Cosmos 1408 Rocket 4.2 09:28:08 10° SSW 09:32:19 36° W 09:36:27 10° NNW
Cosmos 1937 Rocket 3.7 09:28:12 10° NW 09:33:17 50° SW 09:38:28 10° SSE
Cosmos 2181 Rocket 4.0 09:27:06 10° SSW 09:33:21 76° W 09:39:30 10° N
Meteor 2-8 Rocket 4.5 09:27:29 10° SSW 09:33:42 80° W 09:39:50 10° N
Cosmos 1626 3.6 09:31:44 10° SW 09:34:24 18° W 09:37:02 10° NW
Cosmos 1461 3.9 09:31:27 10° WSW 09:34:55 29° S 09:38:22 10° SE
Cosmos 1743 Rocket 3.8 09:32:11 10° SSW 09:36:40 55° W 09:41:07 10° N
Cosmos 1125 Rocket 3.9 09:32:14 10° NNW 09:37:29 72° ENE 09:42:45 10° SSE
MONITOR-E 4.4 09:36:33 10° N 09:39:33 47° W 09:42:36 10° SSW
ALOS 2.7 09:36:06 10° N 09:40:38 44° W 09:45:13 10° SSW
Blok-L 3.9 09:39:58 10° SW 09:40:42 13° S 09:41:20 10° SSE
CZ-4 R/B 2.3 09:39:11 10° NNW 09:42:38 28° W 09:46:07 10° SW
Cosmos 2221 3.9 09:39:08 10° NNE 09:43:23 46° E 09:47:41 10° SSE
ATLAS 2AS CENTAUR R/B 2.6 09:39:50 10° SW 09:45:58 73° NW 09:52:28 10° NE
SKYMED 2 3.7 09:42:13 10° SSE 09:46:42 87° ENE 09:51:07 10° NNW
Cosmos 990 Rocket 4.4 09:41:53 10° WNW 09:46:57 43° SW 09:52:04 10° SSE
Cosmos 1908 3.2 09:43:05 10° NNW 09:47:00 76° WSW 09:50:57 10° S
IRAS Rocket 4.4 09:41:27 10° N 09:47:05 61° WNW 09:52:46 10° SSW
Cosmos 1300 4.1 09:45:45 10° NNE 09:49:28 46° E 09:53:15 10° SSE
Cosmos 494 Rocket 4.3 09:46:51 10° SW 09:51:57 50° WNW 09:56:58 10° N
